VTD4210 USRR-USMU

Flight info

Callsign VTD4210
Flight time 0h 55m
Altitude 35000
Route ULGUN R717 TARSA W128 LUNOD
Aircraft B738/M-SDE2E3FGHIRWXY/LB1

Departure

Time 2026-04-22 12:07
Airport Surgut International Airport (USRR)

Arrival

Time 2026-04-22 13:03
Airport Novy Urengoy Airport (USMU)
Time Latitude Longitude Altitude Speed Heading
2026-04-22 11:39 61.34111 73.40013 234 ft 0 kts 359°
2026-04-22 12:02 61.34112 73.40013 213 ft 2 kts 359°
2026-04-22 12:02 61.34136 73.40012 212 ft 4 kts 358°
2026-04-22 12:02 61.34161 73.39996 213 ft 4 kts 329°
2026-04-22 12:02 61.34175 73.39945 211 ft 4 kts 281°
2026-04-22 12:03 61.34178 73.39881 207 ft 5 kts 274°
2026-04-22 12:03 61.34179 73.39808 207 ft 7 kts 269°
2026-04-22 12:03 61.34177 73.39677 209 ft 11 kts 269°
2026-04-22 12:03 61.34175 73.39506 213 ft 12 kts 269°
2026-04-22 12:04 61.34175 73.39327 213 ft 13 kts 269°
2026-04-22 12:04 61.34174 73.39124 214 ft 15 kts 269°
2026-04-22 12:04 61.34172 73.38914 214 ft 14 kts 269°
2026-04-22 12:04 61.34169 73.38708 213 ft 14 kts 268°
2026-04-22 12:05 61.34166 73.38508 214 ft 14 kts 269°
2026-04-22 12:05 61.34167 73.38313 215 ft 13 kts 274°
2026-04-22 12:05 61.34201 73.38183 212 ft 9 kts 320°
2026-04-22 12:05 61.34254 73.38097 206 ft 10 kts 321°
2026-04-22 12:06 61.34320 73.38018 201 ft 11 kts 345°
2026-04-22 12:06 61.34376 73.38036 203 ft 8 kts 46°
2026-04-22 12:06 61.34384 73.38125 202 ft 0 kts 92°
2026-04-22 12:06 61.34382 73.38315 200 ft 40 kts 91°
2026-04-22 12:07 61.34386 73.39333 208 ft 98 kts 89°
2026-04-22 12:07 61.34391 73.41128 213 ft 147 kts 90°
2026-04-22 12:07 61.34384 73.43485 488 ft 170 kts 93°
2026-04-22 12:07 61.34394 73.45839 1498 ft 158 kts 94°
2026-04-22 12:08 61.34550 73.48219 2054 ft 175 kts 89°
2026-04-22 12:08 61.34883 73.50823 2529 ft 201 kts 82°
2026-04-22 12:08 61.35430 73.53633 3199 ft 220 kts 77°
2026-04-22 12:08 61.36071 73.56643 3859 ft 237 kts 75°
2026-04-22 12:09 61.36767 73.59897 4528 ft 253 kts 74°
2026-04-22 12:09 61.37496 73.63346 5192 ft 268 kts 72°
2026-04-22 12:09 61.38265 73.67018 5843 ft 282 kts 72°
2026-04-22 12:09 61.39047 73.70829 6608 ft 289 kts 72°
2026-04-22 12:10 61.39847 73.74756 7267 ft 299 kts 72°
2026-04-22 12:10 61.40671 73.78737 8197 ft 298 kts 71°
2026-04-22 12:10 61.41506 73.82771 8868 ft 309 kts 72°
2026-04-22 12:10 61.42351 73.86913 9676 ft 312 kts 72°
2026-04-22 12:11 61.43213 73.91145 10230 ft 323 kts 72°
2026-04-22 12:11 61.44103 73.95521 10613 ft 340 kts 72°
2026-04-22 12:11 61.45050 74.00172 10996 ft 356 kts 71°
2026-04-22 12:11 61.46038 74.05043 11347 ft 372 kts 71°
2026-04-22 12:12 61.47065 74.10104 11844 ft 382 kts 71°
2026-04-22 12:12 61.48128 74.15250 12516 ft 389 kts 68°
2026-04-22 12:12 61.49585 74.20080 13259 ft 398 kts 53°
2026-04-22 12:12 61.51582 74.24138 13959 ft 404 kts 38°
2026-04-22 12:13 61.54005 74.27026 14599 ft 408 kts 21°
2026-04-22 12:13 61.56751 74.28854 15244 ft 411 kts 14°
2026-04-22 12:13 61.59487 74.30419 15864 ft 415 kts 13°
2026-04-22 12:13 61.62295 74.31940 16497 ft 419 kts 13°
2026-04-22 12:14 61.64167 74.32966 16920 ft 421 kts 13°
2026-04-22 12:14 61.67975 74.35151 17757 ft 426 kts 14°
2026-04-22 12:14 61.70841 74.36857 18308 ft 430 kts 14°
2026-04-22 12:14 61.73734 74.38578 18829 ft 433 kts 14°
2026-04-22 12:15 61.76645 74.40283 19357 ft 436 kts 13°
2026-04-22 12:15 61.79580 74.41981 19868 ft 439 kts 13°
2026-04-22 12:15 61.82498 74.43663 20375 ft 442 kts 13°
2026-04-22 12:15 61.85469 74.45388 20876 ft 445 kts 13°
2026-04-22 12:16 61.88467 74.47148 21382 ft 448 kts 13°
2026-04-22 12:16 61.91480 74.48925 21892 ft 451 kts 13°
2026-04-22 12:16 61.94516 74.50710 22368 ft 454 kts 12°
2026-04-22 12:16 61.97574 74.52506 22856 ft 457 kts 12°
2026-04-22 12:17 62.00654 74.54319 23327 ft 460 kts 12°
2026-04-22 12:17 62.03706 74.56121 23709 ft 463 kts 12°
2026-04-22 12:17 62.06816 74.57963 24086 ft 465 kts 12°
2026-04-22 12:17 62.09943 74.59820 24459 ft 468 kts 12°
2026-04-22 12:18 62.13082 74.61689 24831 ft 470 kts 12°
2026-04-22 12:18 62.16240 74.63573 25195 ft 471 kts 12°
2026-04-22 12:18 62.19403 74.65463 25550 ft 473 kts 12°
2026-04-22 12:18 62.22583 74.67365 25896 ft 475 kts 12°
2026-04-22 12:19 62.25777 74.69278 26259 ft 477 kts 12°
2026-04-22 12:19 62.28984 74.71203 26611 ft 479 kts 12°
2026-04-22 12:19 62.32154 74.73116 26930 ft 481 kts 12°
2026-04-22 12:19 62.35384 74.75072 27250 ft 483 kts 12°
2026-04-22 12:20 62.38622 74.77035 27556 ft 485 kts 12°
2026-04-22 12:20 62.41875 74.79011 27838 ft 486 kts 12°
2026-04-22 12:20 62.45138 74.80993 28138 ft 488 kts 12°
2026-04-22 12:20 62.48412 74.82984 28441 ft 490 kts 12°
2026-04-22 12:21 62.51693 74.84988 28729 ft 491 kts 12°
2026-04-22 12:21 62.54988 74.87010 28996 ft 493 kts 12°
2026-04-22 12:21 62.58272 74.89031 29612 ft 487 kts 12°
2026-04-22 12:21 62.61457 74.91001 30291 ft 478 kts 12°
2026-04-22 12:22 62.64627 74.92969 30945 ft 469 kts 12°
2026-04-22 12:22 62.67738 74.94901 31614 ft 461 kts 12°
2026-04-22 12:22 62.70809 74.96804 32069 ft 459 kts 12°
2026-04-22 12:22 62.73882 74.98707 32404 ft 459 kts 12°
2026-04-22 12:23 62.76959 75.00621 32682 ft 460 kts 12°
2026-04-22 12:23 62.80040 75.02548 32949 ft 462 kts 12°
2026-04-22 12:23 62.83137 75.04491 33191 ft 463 kts 12°
2026-04-22 12:23 62.86198 75.06412 33440 ft 465 kts 12°
2026-04-22 12:24 62.89310 75.08367 33683 ft 466 kts 12°
2026-04-22 12:24 62.92433 75.10332 33906 ft 468 kts 12°
2026-04-22 12:24 62.95562 75.12304 34110 ft 469 kts 12°
2026-04-22 12:24 62.98699 75.14290 34310 ft 470 kts 12°
2026-04-22 12:25 63.01841 75.16288 34502 ft 470 kts 13°
2026-04-22 12:25 63.04988 75.18290 34697 ft 471 kts 12°
2026-04-22 12:25 63.08148 75.20301 34834 ft 474 kts 13°
2026-04-22 12:25 63.11328 75.22328 34847 ft 478 kts 13°
2026-04-22 12:26 63.17683 75.26633 34858 ft 484 kts 19°
2026-04-22 12:26 63.23609 75.33751 34868 ft 483 kts 28°
2026-04-22 12:27 63.29309 75.41462 34864 ft 478 kts 29°
2026-04-22 12:27 63.34981 75.49176 34871 ft 477 kts 28°
2026-04-22 12:28 63.40616 75.56759 34879 ft 476 kts 28°
2026-04-22 12:28 63.46259 75.64447 34883 ft 475 kts 29°
2026-04-22 12:29 63.51882 75.72157 34886 ft 474 kts 29°
2026-04-22 12:29 63.57463 75.79820 34891 ft 473 kts 29°
2026-04-22 12:30 63.65869 75.91409 34890 ft 472 kts 29°
2026-04-22 12:31 63.71454 75.99159 34899 ft 471 kts 29°
2026-04-22 12:31 63.77027 76.06930 34900 ft 470 kts 29°
2026-04-22 12:32 63.82587 76.14721 34916 ft 470 kts 29°
2026-04-22 12:32 63.90846 76.26465 34923 ft 469 kts 30°
2026-04-22 12:33 63.96338 76.34445 34926 ft 468 kts 30°
2026-04-22 12:33 64.01833 76.42396 34932 ft 467 kts 30°
2026-04-22 12:34 64.07316 76.50373 34938 ft 467 kts 30°
2026-04-22 12:34 64.12747 76.58333 34941 ft 466 kts 30°
2026-04-22 12:35 64.18200 76.66351 34951 ft 466 kts 30°
2026-04-22 12:35 64.23644 76.74392 34954 ft 465 kts 30°
2026-04-22 12:36 64.29079 76.82462 34959 ft 465 kts 30°
2026-04-22 12:36 64.34467 76.90500 34965 ft 464 kts 30°
2026-04-22 12:37 64.39881 76.98613 34971 ft 464 kts 30°
2026-04-22 12:37 64.45284 77.06749 34976 ft 463 kts 30°
2026-04-22 12:38 64.50680 77.14914 34983 ft 463 kts 30°
2026-04-22 12:38 64.56025 77.23040 34987 ft 462 kts 30°
2026-04-22 12:39 64.58713 77.27144 34768 ft 465 kts 30°
2026-04-22 12:39 64.64154 77.35475 33493 ft 469 kts 30°
2026-04-22 12:39 64.66881 77.39657 32906 ft 468 kts 30°
2026-04-22 12:40 64.69596 77.43823 32328 ft 467 kts 30°
2026-04-22 12:40 64.72306 77.47990 31763 ft 466 kts 30°
2026-04-22 12:40 64.75008 77.52157 31185 ft 465 kts 30°
2026-04-22 12:40 64.77668 77.56275 30633 ft 464 kts 30°
2026-04-22 12:41 64.80358 77.60450 30064 ft 464 kts 29°
2026-04-22 12:41 64.83044 77.64630 29450 ft 462 kts 30°
2026-04-22 12:41 64.85716 77.68796 28867 ft 460 kts 29°
2026-04-22 12:41 64.88501 77.72259 28325 ft 446 kts 16°
2026-04-22 12:42 64.91435 77.74059 27788 ft 427 kts
2026-04-22 12:42 64.94338 77.74143 27270 ft 409 kts 348°
2026-04-22 12:42 64.97042 77.72609 26774 ft 392 kts 334°
2026-04-22 12:42 64.99518 77.70118 26297 ft 383 kts 331°
2026-04-22 12:43 65.01904 77.67561 25835 ft 381 kts 330°
2026-04-22 12:43 65.04309 77.64936 25371 ft 381 kts 331°
2026-04-22 12:43 65.06722 77.62333 24900 ft 381 kts 331°
2026-04-22 12:43 65.09141 77.59767 24430 ft 381 kts 332°
2026-04-22 12:44 65.11549 77.57233 23992 ft 375 kts 332°
2026-04-22 12:44 65.13873 77.54781 23990 ft 358 kts 332°
2026-04-22 12:44 65.16135 77.52366 23802 ft 361 kts 331°
2026-04-22 12:44 65.18474 77.49829 23385 ft 374 kts 332°
2026-04-22 12:45 65.20845 77.47265 22889 ft 374 kts 332°
2026-04-22 12:45 65.23212 77.44724 22411 ft 373 kts 332°
2026-04-22 12:45 65.25543 77.42229 21940 ft 372 kts 332°
2026-04-22 12:45 65.27897 77.39704 21465 ft 371 kts 332°
2026-04-22 12:46 65.30251 77.37173 21008 ft 370 kts 332°
2026-04-22 12:46 65.32598 77.34642 20554 ft 369 kts 332°
2026-04-22 12:46 65.34927 77.32125 20066 ft 365 kts 332°
2026-04-22 12:46 65.37228 77.29635 19614 ft 360 kts 333°
2026-04-22 12:47 65.39494 77.27176 19174 ft 355 kts 333°
2026-04-22 12:47 65.41732 77.24745 18725 ft 352 kts 333°
2026-04-22 12:47 65.43935 77.22343 18284 ft 352 kts 332°
2026-04-22 12:47 65.46161 77.19911 17804 ft 352 kts 333°
2026-04-22 12:48 65.48385 77.17480 17348 ft 350 kts 333°
2026-04-22 12:48 65.50598 77.15058 16906 ft 349 kts 333°
2026-04-22 12:48 65.52801 77.12640 16470 ft 347 kts 333°
2026-04-22 12:48 65.54996 77.10227 16030 ft 346 kts 333°
2026-04-22 12:49 65.57184 77.07816 15600 ft 345 kts 333°
2026-04-22 12:49 65.59362 77.05413 15166 ft 344 kts 333°
2026-04-22 12:49 65.61538 77.03005 14738 ft 343 kts 333°
2026-04-22 12:49 65.63707 77.00605 14294 ft 342 kts 333°
2026-04-22 12:50 65.65814 76.97970 13877 ft 339 kts 324°
2026-04-22 12:50 65.67574 76.94374 13447 ft 334 kts 312°
2026-04-22 12:50 65.69188 76.90332 12991 ft 332 kts 311°
2026-04-22 12:50 65.70757 76.86255 12564 ft 330 kts 310°
2026-04-22 12:51 65.72303 76.82173 12145 ft 327 kts 310°
2026-04-22 12:51 65.73843 76.78119 11735 ft 325 kts 310°
2026-04-22 12:51 65.75377 76.74114 11320 ft 323 kts 310°
2026-04-22 12:51 65.76904 76.70137 10910 ft 320 kts 310°
2026-04-22 12:52 65.78419 76.66185 10507 ft 318 kts 310°
2026-04-22 12:52 65.79915 76.62268 10267 ft 311 kts 310°
2026-04-22 12:52 65.81338 76.58530 10153 ft 300 kts 310°
2026-04-22 12:52 65.82735 76.54855 10046 ft 291 kts 310°
2026-04-22 12:53 65.84109 76.51223 9712 ft 294 kts 310°
2026-04-22 12:53 65.85495 76.47556 9280 ft 292 kts 310°
2026-04-22 12:53 65.86864 76.43935 8865 ft 288 kts 310°
2026-04-22 12:53 65.88217 76.40354 8472 ft 285 kts 310°
2026-04-22 12:54 65.89102 76.38008 8223 ft 283 kts 309°
2026-04-22 12:54 65.90892 76.33246 7708 ft 285 kts 309°
2026-04-22 12:54 65.92219 76.29709 7334 ft 287 kts 309°
2026-04-22 12:54 65.93573 76.26095 6930 ft 288 kts 309°
2026-04-22 12:55 65.94485 76.23661 6672 ft 286 kts 309°
2026-04-22 12:55 65.96252 76.18937 6145 ft 282 kts 309°
2026-04-22 12:55 65.97568 76.15403 5760 ft 281 kts 309°
2026-04-22 12:55 65.98890 76.11844 5375 ft 283 kts 309°
2026-04-22 12:56 66.00219 76.08266 4974 ft 285 kts 309°
2026-04-22 12:56 66.01591 76.04741 4582 ft 288 kts 318°
2026-04-22 12:56 66.03321 76.02496 4338 ft 284 kts 347°
2026-04-22 12:56 66.05248 76.02401 4075 ft 273 kts 18°
2026-04-22 12:57 66.07038 76.03609 4015 ft 261 kts 22°
2026-04-22 12:57 66.08731 76.04953 3925 ft 249 kts 24°
2026-04-22 12:57 66.10321 76.06260 3814 ft 233 kts 25°
2026-04-22 12:57 66.11676 76.07947 3715 ft 202 kts 53°
2026-04-22 12:58 66.12209 76.10705 3502 ft 169 kts 99°
2026-04-22 12:58 66.11968 76.13288 3208 ft 151 kts 115°
2026-04-22 12:58 66.11659 76.15710 2998 ft 145 kts 115°
2026-04-22 12:58 66.11369 76.18001 2799 ft 135 kts 116°
2026-04-22 12:59 66.11099 76.20118 2621 ft 125 kts 116°
2026-04-22 12:59 66.10839 76.22147 2468 ft 123 kts 116°
2026-04-22 12:59 66.10587 76.24119 2301 ft 119 kts 116°
2026-04-22 12:59 66.10337 76.26063 2152 ft 119 kts 116°
2026-04-22 13:00 66.10089 76.28001 1997 ft 117 kts 116°
2026-04-22 13:00 66.09843 76.29921 1846 ft 117 kts 116°
2026-04-22 13:00 66.09601 76.31805 1686 ft 117 kts 116°
2026-04-22 13:00 66.09354 76.33721 1543 ft 118 kts 115°
2026-04-22 13:01 66.09104 76.35666 1375 ft 119 kts 114°
2026-04-22 13:01 66.08851 76.37616 1200 ft 122 kts 115°
2026-04-22 13:01 66.08583 76.39643 1039 ft 126 kts 112°
2026-04-22 13:01 66.08313 76.41738 869 ft 131 kts 110°
2026-04-22 13:02 66.08037 76.43903 715 ft 134 kts 110°
2026-04-22 13:02 66.07759 76.46062 514 ft 130 kts 109°
2026-04-22 13:02 66.07500 76.48125 365 ft 127 kts 108°
2026-04-22 13:02 66.07226 76.50207 219 ft 126 kts 109°
2026-04-22 13:03 66.07012 76.51889 207 ft 71 kts 108°
2026-04-22 13:03 66.06900 76.52745 207 ft 46 kts 107°
2026-04-22 13:03 66.06810 76.53448 213 ft 38 kts 107°
2026-04-22 13:03 66.06782 76.53749 205 ft 10 kts 77°
2026-04-22 13:04 66.06833 76.53839 212 ft 12 kts 20°
2026-04-22 13:04 66.06911 76.53901 208 ft 10 kts 15°
2026-04-22 13:04 66.06965 76.53837 206 ft 10 kts 294°
2026-04-22 13:04 66.06993 76.53642 206 ft 16 kts 288°
2026-04-22 13:05 66.07030 76.53357 215 ft 18 kts 288°
2026-04-22 13:05 66.07068 76.53061 212 ft 18 kts 287°
2026-04-22 13:05 66.07071 76.52803 206 ft 15 kts 256°
2026-04-22 13:05 66.07096 76.52561 211 ft 14 kts 289°
2026-04-22 13:06 66.07118 76.52395 212 ft 8 kts 290°
2026-04-22 13:06 66.07166 76.52361 215 ft 8 kts 16°
2026-04-22 13:06 66.07198 76.52388 217 ft 2 kts 19°
2026-04-22 13:06 66.07203 76.52392 209 ft 0 kts 18°